Date String (YYYY-MM-DD hh:mm:ss) UTC,Instrument flags,absolute air pressure of the measurement (hPa),sample flow rate (lpm),inlet stack bypass flow (lpm),air temperature of the measurement (°C),ambient temperature measured by the external sensor (°C),aerosol sample conditioner tube jacket temperature (°C),OPC LED temperature (°C),internal box temperature (°C),relative humidity of the measurement (%),span deviation,mass concentration of particles derived from Lorenz-Mie calculation of OPC scattering (μg/m³),mass concentration of particles derived from Lorenz-Mie calculation of OPC scattering (μg/m³),mass concentration of particles derived from Lorenz-Mie calculation of OPC scattering (μg/m³)
DateTimeUTC,F1_M11,P_M11,Q1_M11,Q2_M11,T1_M11,T2_M11,T3_M11,T4_M11,T5_M11,U1_M11,ZSPAN_M11,X2_M11,X0_M11,X1_M11
2023-09-17 23:00:00,SystemResetWarning,0831.7,5.00,000.00,027.7,026.0,000.0,036.0,029.3,17.9,0000.0,0003.30,0006.35,0003.05
2023-09-17 23:01:00,SystemResetWarning,0831.7,4.99,000.00,027.7,026.3,000.0,036.0,029.4,16.5,0000.0,0003.29,0006.29,0003.05
2023-09-17 23:02:00,SystemResetWarning,0831.7,4.99,000.00,027.8,026.6,000.0,036.0,029.5,17.1,0000.0,0003.31,0006.60,0003.04
2023-09-17 23:03:00,SystemResetWarning,0831.7,5.01,000.00,027.8,026.8,000.0,036.1,029.6,17.2,0000.0,0003.29,0006.59,0003.01
2023-09-17 23:04:00,SystemResetWarning,0831.6,4.99,000.00,027.8,025.8,000.0,036.0,029.3,17.6,0000.0,0003.26,0006.08,0002.99
2023-09-17 23:05:00,SystemResetWarning,0831.6,5.01,000.00,027.7,024.2,000.0,036.0,028.8,17.9,0000.0,0003.24,0006.20,0002.97
2023-09-17 23:06:00,SystemResetWarning,0831.6,5.01,000.00,027.6,024.0,000.0,035.9,028.9,18.2,0000.0,0003.23,0006.13,0002.95
2023-09-17 23:07:00,SystemResetWarning,0831.6,5.01,000.00,027.5,024.3,000.0,035.9,028.9,18.0,0000.0,0003.23,0006.30,0002.94
2023-09-17 23:08:00,SystemResetWarning,0831.6,5.00,000.00,027.5,024.7,000.0,035.9,029.0,18.0,0000.0,0003.23,0006.67,0002.93
2023-09-17 23:09:00,SystemResetWarning,0831.7,4.99,000.00,027.5,025.2,000.0,035.9,029.0,18.2,0000.0,0003.22,0006.76,0002.92
2023-09-17 23:10:00,SystemResetWarning,0831.7,4.99,000.00,027.5,025.6,000.0,035.9,029.2,18.0,0000.0,0003.23,0007.49,0002.92
2023-09-17 23:11:00,SystemResetWarning,0831.7,5.01,000.00,027.6,025.9,000.0,035.9,029.3,17.8,0000.0,0003.22,0007.48,0002.91
2023-09-17 23:12:00,SystemResetWarning,0831.6,5.00,000.00,027.6,026.2,000.0,035.9,029.4,17.6,0000.0,0003.23,0007.51,0002.90
2023-09-17 23:13:00,SystemResetWarning,0831.6,4.99,000.00,027.7,026.5,000.0,036.0,029.4,17.1,0000.0,0003.21,0007.29,0002.90
2023-09-17 23:14:00,SystemResetWarning,0831.6,5.00,000.00,027.8,026.7,000.0,036.0,029.5,17.1,0000.0,0003.20,0006.87,0002.90
2023-09-17 23:15:00,SystemResetWarning,0831.7,5.00,000.00,027.8,026.9,000.0,036.0,029.6,17.1,0000.0,0003.20,0006.49,0002.89
2023-09-17 23:16:00,SystemResetWarning,0831.6,5.00,000.00,027.9,026.9,000.0,036.1,029.6,16.7,0000.0,0003.21,0005.90,0002.89
2023-09-17 23:17:00,SystemResetWarning,0831.6,4.98,000.00,027.8,025.5,000.0,036.0,029.3,17.0,0000.0,0003.21,0005.99,0002.90
2023-09-17 23:18:00,SystemResetWarning,0831.6,5.02,000.00,027.7,024.2,000.0,036.0,028.9,17.0,0000.0,0003.22,0005.84,0002.90
2023-09-17 23:19:00,SystemResetWarning,0831.6,5.01,000.00,027.6,024.1,000.0,035.9,028.9,17.2,0000.0,0003.20,0005.43,0002.88
2023-09-17 23:20:00,SystemResetWarning,0831.5,5.00,000.00,027.6,024.5,000.0,035.9,028.9,17.1,0000.0,0003.19,0005.44,0002.88
2023-09-17 23:21:00,SystemResetWarning,0831.6,5.00,000.00,027.5,024.9,000.0,035.9,029.0,17.8,0000.0,0003.18,0004.46,0002.89
2023-09-17 23:22:00,SystemResetWarning,0831.6,4.99,000.00,027.6,025.3,000.0,035.9,029.1,17.2,0000.0,0003.21,0004.93,0002.91
2023-09-17 23:23:00,SystemResetWarning,0831.6,4.99,000.00,027.6,025.7,000.0,036.0,029.2,16.9,0000.0,0003.25,0005.67,0002.94
2023-09-17 23:24:00,SystemResetWarning,0831.5,5.00,000.00,027.6,026.0,000.0,036.0,029.3,17.2,0000.0,0003.26,0005.71,0002.93
2023-09-17 23:25:00,SystemResetWarning,0831.6,5.00,000.00,027.7,026.3,000.0,036.0,029.4,17.8,0000.0,0003.29,0005.81,0002.95
2023-09-17 23:26:00,SystemResetWarning,0831.6,5.01,000.00,027.8,026.6,000.0,036.0,029.5,18.6,0000.0,0003.31,0005.88,0002.97
2023-09-17 23:27:00,SystemResetWarning,0831.5,5.01,000.00,027.8,026.8,000.0,036.0,029.6,18.6,0000.0,0003.31,0005.88,0002.99
2023-09-17 23:28:00,SystemResetWarning,0831.5,4.99,000.00,027.9,026.9,000.0,036.1,029.7,18.5,0000.0,0003.32,0005.83,0003.01
2023-09-17 23:29:00,SystemResetWarning,0831.5,4.98,000.00,027.9,026.0,000.0,036.1,029.4,18.0,0000.0,0003.29,0005.78,0003.02
2023-09-17 23:30:00,SystemResetWarning,0831.5,5.01,000.00,027.7,024.4,000.0,036.0,028.9,18.3,0000.0,0003.32,0006.07,0003.05
2023-09-17 23:31:00,SystemResetWarning,0831.5,5.01,000.00,027.7,024.1,000.0,035.9,028.9,17.9,0000.0,0003.36,0006.26,0003.08
2023-09-17 23:32:00,SystemResetWarning,0831.5,5.01,000.00,027.6,024.4,000.0,035.9,028.9,17.5,0000.0,0003.37,0006.31,0003.08
2023-09-17 23:33:00,SystemResetWarning,0831.5,5.00,000.00,027.6,024.7,000.0,035.9,029.0,18.0,0000.0,0003.39,0005.96,0003.07
2023-09-17 23:34:00,SystemResetWarning,0831.5,4.99,000.00,027.6,025.1,000.0,035.9,029.1,17.9,0000.0,0003.38,0005.46,0003.08
2023-09-17 23:35:00,SystemResetWarning,0831.5,4.99,000.00,027.6,025.5,000.0,036.0,029.2,17.2,0000.0,0003.38,0006.91,0003.10
2023-09-17 23:36:00,SystemResetWarning,0831.5,5.00,000.00,027.6,025.9,000.0,036.0,029.3,17.6,0000.0,0003.37,0007.24,0003.09
2023-09-17 23:37:00,SystemResetWarning,0831.5,5.00,000.00,027.7,026.2,000.0,036.0,029.4,17.6,0000.0,0003.37,0007.24,0003.08
2023-09-17 23:38:00,SystemResetWarning,0831.5,5.01,000.00,027.7,026.4,000.0,036.0,029.5,18.4,0000.0,0003.37,0007.33,0003.07
2023-09-17 23:39:00,SystemResetWarning,0831.6,5.00,000.00,027.8,026.7,000.0,036.0,029.6,18.2,0000.0,0003.39,0008.07,0003.07
2023-09-17 23:40:00,SystemResetWarning,0831.6,4.99,000.00,027.9,026.7,000.0,036.1,029.6,17.9,0000.0,0003.42,0008.36,0003.07
2023-09-17 23:41:00,SystemResetWarning,0831.5,5.00,000.00,027.8,025.5,000.0,036.0,029.2,17.2,0000.0,0003.42,0008.43,0003.06
2023-09-17 23:42:00,SystemResetWarning,0831.5,5.00,000.00,027.7,024.8,000.0,036.0,029.1,17.2,0000.0,0003.42,0008.36,0003.05
2023-09-17 23:43:00,SystemResetWarning,0831.5,5.01,000.00,027.7,025.0,000.0,036.0,029.2,17.2,0000.0,0003.42,0008.41,0003.05
2023-09-17 23:44:00,SystemResetWarning,0831.5,4.99,000.00,027.7,025.2,000.0,036.0,029.2,17.6,0000.0,0003.39,0008.33,0003.03
2023-09-17 23:45:00,SystemResetWarning,0831.5,5.00,000.00,027.7,025.6,000.0,036.0,029.3,17.4,0000.0,0003.35,0008.21,0002.99
2023-09-17 23:46:00,SystemResetWarning,0831.6,5.00,000.00,027.7,025.9,000.0,036.0,029.4,18.0,0000.0,0003.33,0007.34,0002.96
2023-09-17 23:47:00,SystemResetWarning,0831.6,5.00,000.00,027.8,026.2,000.0,036.0,029.5,18.1,0000.0,0003.34,0007.12,0002.95
2023-09-17 23:48:00,SystemResetWarning,0831.6,4.99,000.00,027.8,026.4,000.0,036.1,029.6,18.1,0000.0,0003.34,0007.08,0002.95
2023-09-17 23:49:00,SystemResetWarning,0831.5,5.00,000.00,027.9,026.7,000.0,036.1,029.6,18.4,0000.0,0003.35,0007.16,0002.94
2023-09-17 23:50:00,SystemResetWarning,0831.6,5.00,000.00,027.9,026.8,000.0,036.1,029.7,17.9,0000.0,0003.35,0006.02,0002.93
2023-09-17 23:51:00,SystemResetWarning,0831.6,4.99,000.00,027.9,025.7,000.0,036.1,029.3,18.3,0000.0,0003.35,0005.59,0002.92
2023-09-17 23:52:00,SystemResetWarning,0831.5,5.00,000.00,027.7,024.2,000.0,036.0,028.8,18.4,0000.0,0003.35,0005.22,0002.91
2023-09-17 23:53:00,SystemResetWarning,0831.5,5.02,000.00,027.7,024.1,000.0,036.0,028.9,18.6,0000.0,0003.34,0005.12,0002.91
2023-09-17 23:54:00,SystemResetWarning,0831.5,5.00,000.00,027.6,024.3,000.0,036.0,029.0,18.7,0000.0,0003.31,0004.93,0002.90
2023-09-17 23:55:00,SystemResetWarning,0831.5,5.00,000.00,027.6,024.7,000.0,036.0,029.0,19.2,0000.0,0003.32,0005.01,0002.92
2023-09-17 23:56:00,SystemResetWarning,0831.5,5.00,000.00,027.6,025.1,000.0,036.0,029.1,19.4,0000.0,0003.34,0005.05,0002.94
2023-09-17 23:57:00,SystemResetWarning,0831.6,5.00,000.00,027.6,025.5,000.0,036.0,029.2,20.0,0000.0,0003.36,0005.07,0002.95
2023-09-17 23:58:00,SystemResetWarning,0831.5,5.01,000.00,027.6,025.9,000.0,036.0,029.3,19.3,0000.0,0003.35,0005.03,0002.95
2023-09-17 23:59:00,SystemResetWarning,0831.5,4.99,000.00,027.7,026.2,000.0,036.0,029.4,18.9,0000.0,0003.32,0004.94,0002.96
